User: anonymous   Login
Location: McDonald Observatory
(30.6717°N, 104.0221°W)
Time: 19:47:37
(UTC-05:00)
Language:

Cosmos 1484 Rocket - Orbit

View from above orbital plane
View from above orbital plane
View from above satellite
View from above satellite

Ground track
Ground track

The orbit data is extracted from the following two-line orbital elements,

1 14208U 83075B   16181.93768013 +.00000510 +00000-0 +34762-4 0  9994
2 14208 097.3542 200.8063 0038092 265.9051 093.7825 15.09970619794041
Epoch (UTC): 29 June 2016 22:30:15
Eccentricity: 0.0038092
inclination: 97.3542°
perigee height: 510 km
apogee height: 562 km
right ascension of ascending node: 200.8063°
argument of perigee: 265.9051°
revolutions per day: 15.09970619
mean anomaly at epoch: 93.7825°
orbit number at epoch: 79404

The dashed part of the orbit path shows where the satellite is in the earth's shadow,  

DLR